• Join FlightAware (Why Join?)
  • Login
  • US Flag GB Flag 
23:49 EDT


 

Airport Tracker/Info


-or-


 

Live Flight TrackerFlight Track Log ✈ DAL1245 ✈ 31-Aug-2013 ✈ KMSO - KMSP

Flight Track Log - Related Links

Times and Time Zones

All times are in EDT time to prevent confusion due to time zone crossing. See the DAL1245 flight status page for this flight to view local times or setup timezone preferences in your user account.

Time Position Orientation Groundspeed Altitude Reporting Facility
EDT Latitude Longitude Course Direction KTS MPH feet Rate Location/Type
08:12 46.9289 -114.1147 103° East 151 174 4,100  Level Salt Lake Center
08:13 46.9581 -114.1692 308° West 168 193 6,600 2,280 Climbing Salt Lake Center
08:14 46.9883 -114.2189 312° West 166 191 8,700 2,040 Climbing Salt Lake Center
08:15 46.7613 -112.9954 102° East  Level FlightAware Approximate
08:15 47.0183 -114.2697 311° West 165 190 10,700  Level Salt Lake Center
08:16 46.7354 -112.8146 102° East  Level FlightAware Approximate
08:16 47.0542 -114.3317 310° West 198 228 12,100  Level Salt Lake Center
08:17 46.7074 -112.6347 103° East  Level FlightAware Approximate
08:17 47.0467 -114.4303 264° West 288 331 13,600  Level Salt Lake Center
08:18 46.9639 -114.4350 182° South 341 392 15,700 1,800 Climbing Salt Lake Center
08:19 46.9464 -114.2869 100° East 402 463 17,300 1,800 Climbing Salt Lake Center
08:20 46.9642 -114.1167 81° East 423 487 19,300 1,680 Climbing Salt Lake Center
08:21 46.9497 -113.9614 98° East 456 525 20,800 1,680 Climbing Salt Lake Center
08:22 46.9400 -113.7778 94° East 456 525 22,800 1,800 Climbing Salt Lake Center
08:23 46.9311 -113.5892 94° East 468 539 24,400 1,620 Climbing Salt Lake Center
08:24 46.9203 -113.3947 95° East 480 552 26,100 1,560 Climbing Salt Lake Center
08:25 46.9092 -113.1569 94° East 494 568 27,600 1,380 Climbing Salt Lake Center
08:26 46.8961 -112.9542 95° East 504 580 28,900 1,140 Climbing Salt Lake Center
08:27 46.8878 -112.7683 94° East 512 589 30,000 1,200 Climbing Salt Lake Center
08:28 46.8753 -112.5617 95° East 513 590 31,400 1,080 Climbing Salt Lake Center
08:29 46.8631 -112.3542 95° East 515 593 32,200 1,020 Climbing Salt Lake Center
08:30 46.8500 -112.1439 95° East 520 598 33,500 1,260 Climbing Salt Lake Center
08:31 46.8378 -111.9358 95° East 520 598 34,800 1,080 Climbing Salt Lake Center
08:32 46.8236 -111.7286 96° East 517 595 35,700 840 Climbing Salt Lake Center
08:33 46.8103 -111.5200 95° East 520 598 36,500 600 Climbing Salt Lake Center
08:34 46.7961 -111.3128 96° East 519 597 37,000 180 Climbing Salt Lake Center
08:35 46.7786 -111.0678 96° East 512 589 36,900  Descending Salt Lake Center
08:36 46.7647 -110.8564 95° East 524 603 37,000  Climbing Salt Lake Center
08:37 46.7494 -110.6500 96° East 519 597 37,000  Level Salt Lake Center
08:38 46.7319 -110.4456 97° East 512 589 37,000  Level Salt Lake Center
08:39 46.7167 -110.2361 96° East 519 597 37,000  Level Salt Lake Center
08:40 46.7003 -110.0294 97° East 524 603 37,000  Level Salt Lake Center
08:41 46.6839 -109.8206 96° East 521 600 37,000  Level Salt Lake Center
08:42 46.6667 -109.6117 97° East 522 601 37,100  Climbing Salt Lake Center
08:43 46.6497 -109.4011 97° East 522 601 37,000 -60 Descending Salt Lake Center
08:44 46.6314 -109.1903 97° East 524 603 37,000  Level Salt Lake Center
08:45 46.6131 -108.9819 97° East 521 600 37,000  Level Salt Lake Center
08:46 46.5944 -108.7739 97° East 520 598 37,000  Level Salt Lake Center
08:47 46.5750 -108.5658 98° East 520 598 37,000  Level Salt Lake Center
08:48 46.5547 -108.3583 98° East 520 598 37,000  Level Salt Lake Center
08:49 46.5342 -108.1517 98° East 518 596 37,000  Level Salt Lake Center
08:50 46.5144 -107.9450 98° East 517 595 37,000  Level Salt Lake Center
08:51 46.4936 -107.7397 98° East 516 594 37,000  Level Salt Lake Center
08:52 46.4728 -107.5336 98° East 516 594 37,000  Level Salt Lake Center
08:53 46.4514 -107.3281 99° East 516 594 37,000  Level Salt Lake Center
08:54 46.4294 -107.1189 99° East 521 600 37,000  Level Salt Lake Center
08:55 46.4069 -106.9114 99° East 522 601 37,000  Level Salt Lake Center
08:56 46.3842 -106.7036 99° East 522 601 37,000  Level Salt Lake Center
08:57 46.3611 -106.4964 99° East 522 601 37,000  Level Salt Lake Center
08:58 46.3361 -106.2872 100° East 525 604 37,000  Level Salt Lake Center
08:59 46.3069 -106.0381 100° East 525 604 37,000  Level Salt Lake Center
09:00 46.2819 -105.8317 100° East 524 603 37,000  Level Salt Lake Center
09:01 46.2569 -105.6253 100° East 523 602 37,000  Level Salt Lake Center
09:02 46.2325 -105.4192 100° East 521 600 37,000  Level Salt Lake Center
09:03 46.2061 -105.2133 100° East 522 601 37,100  Climbing Salt Lake Center
09:04 46.1822 -105.0119 100° East 516 594 37,000 -60 Descending Salt Lake Center
09:05 46.1561 -104.8075 100° East 516 594 37,000  Level Salt Lake Center
09:06 46.1300 -104.6053 100° East 516 594 37,000 -60 Level Salt Lake Center
09:07 46.1081 -104.4336 100° East 516 594 36,900 -60 Descending Salt Lake Center
09:08 46.0772 -104.1942 100° East 512 589 36,900  Level Salt Lake Center
09:09 46.0492 -103.9925 101° East 514 592 37,000  Climbing Salt Lake Center
09:10 46.0217 -103.7917 101° East 515 593 37,000  Level Salt Lake Center
09:11 45.9936 -103.5892 101° East 516 594 37,000  Level Salt Lake Center
09:12 45.9653 -103.3889 101° East 516 594 37,000  Level Salt Lake Center
09:13 45.9375 -103.1853 101° East 518 596 37,000  Level Salt Lake Center
09:14 45.9158 -103.0283 101° East 518 596 37,000 -60 Level Minneapolis Center
09:15 45.8867 -102.8278 102° East 516 594 36,900  Descending Minneapolis Center
09:16 45.8578 -102.6386 102° East 516 594 37,000 60 Climbing Minneapolis Center
09:17 45.8275 -102.4383 102° East 514 592 37,100  Climbing Minneapolis Center
09:18 45.7922 -102.2019 102° East 509 586 37,000 -60 Descending Minneapolis Center
09:19 45.7619 -102.0094 103° East 501 577 37,000  Level Minneapolis Center
09:20 45.7317 -101.8153 103° East 499 574 37,000  Level Minneapolis Center
09:21 45.7078 -101.6617 103° East 497 572 37,000  Level Minneapolis Center
09:22 45.6714 -101.4297 103° East 497 572 37,000  Level Minneapolis Center
09:23 45.6397 -101.2383 103° East 496 571 37,000  Level Minneapolis Center
09:24 45.6114 -101.0431 102° East 499 574 37,000  Level Minneapolis Center
09:25 45.5803 -100.8528 103° East 494 568 37,000  Level Minneapolis Center
09:26 45.5464 -100.6589 104° East 499 574 37,000  Level Minneapolis Center
09:27 45.5147 -100.4656 103° East 499 574 37,000  Level Minneapolis Center
09:28 45.4814 -100.2722 104° East 500 575 37,000  Level Minneapolis Center
09:29 45.4486 -100.0794 104° East 498 573 37,000  Level Minneapolis Center
09:30 45.4144 -99.8856 104° East 498 573 37,000  Level Minneapolis Center
09:31 45.3814 -99.6931 104° East 498 573 37,000  Level Minneapolis Center
09:32 45.3400 -99.4653 104° East 494 568 37,000  Level Minneapolis Center
09:33 45.3056 -99.2783 105° East 491 565 37,000  Level Minneapolis Center
09:34 45.2647 -99.0564 105° East 486 559 37,000  Level Minneapolis Center
09:35 45.2308 -98.8714 105° East 484 557 37,000  Level Minneapolis Center
09:37 45.1972 -98.6861 104° East 485 558 37,000  Level Minneapolis Center
09:38 45.1622 -98.4997 105° East 486 559 37,000  Level Minneapolis Center
09:39 45.1269 -98.3136 105° East 489 563 37,000 -240 Level Minneapolis Center
09:40 45.0914 -98.1278 105° East 489 563 36,600 -720 Descending Minneapolis Center
09:41 45.0539 -97.9397 106° East 484 557 35,600 -840 Descending Minneapolis Center
09:42 45.0200 -97.7592 105° East 478 550 35,000 -300 Descending Minneapolis Center
09:43 44.9833 -97.5794 106° East 477 549 35,000  Level Minneapolis Center
09:44 44.9403 -97.3625 106° East 478 550 35,000  Level Minneapolis Center
09:45 44.9033 -97.1828 106° East 477 549 35,000  Level Minneapolis Center
09:46 44.8750 -97.0397 106° East 476 548 35,000  Level Minneapolis Center
09:47 44.8314 -96.8250 106° East 474 545 35,000  Level Minneapolis Center
09:48 44.8156 -96.6394 97° East 475 547 35,000  Level Minneapolis Center
09:49 44.8089 -96.4539 93° East 474 545 35,000  Level Minneapolis Center
09:50 44.8014 -96.2672 93° East 476 548 35,000  Level Minneapolis Center
09:51 44.7944 -96.0806 93° East 475 547 35,000  Level Minneapolis Center
09:52 44.7869 -95.9322 94° East 474 545 35,000 -840 Level Minneapolis Center
09:53 44.7775 -95.7103 93° East 473 544 33,400 -2,220 Descending Minneapolis Center
09:54 44.7692 -95.5231 94° East 477 549 30,100 -3,300 Descending Minneapolis Center
09:55 44.7561 -95.2614 94° East 478 550 26,000 -3,240 Descending Minneapolis Center
09:56 44.7461 -95.0842 94° East 460 529 23,500 -2,460 Descending Minneapolis Center
09:57 44.7381 -94.9144 94° East 443 510 21,000 -2,460 Descending Minneapolis Center
09:58 44.7297 -94.7514 94° East 427 491 18,500 -2,340 Descending Minneapolis Center
09:59 44.7217 -94.6067 94° East 417 480 16,300 -2,520 Descending Minneapolis Center
10:00 44.7097 -94.4175 95° East 405 466 13,400 -2,280 Descending Minneapolis Center
10:01 44.7006 -94.2681 95° East 387 445 11,700 -1,200 Descending Minneapolis Center
10:02 44.6981 -94.1253 91° East 369 425 10,800 -1,020 Descending Minneapolis Center
10:04 44.7269 -94.0081 71° East 313 360 9,500 -1,740 Descending Minneapolis Center
10:05 44.7742 -93.8900 61° Northeast 289 333 7,300 -1,260 Descending Minneapolis Center
10:06 44.8242 -93.8047 50° Northeast 281 323 7,000 -180 Descending Minneapolis Center
10:07 44.8711 -93.7217 51° Northeast 271 312 7,000 -180 Level Minneapolis Center
10:08 44.9111 -93.6492 52° Northeast 236 272 6,700 -960 Descending Minneapolis Center
10:09 44.9517 -93.5772 51° Northeast 235 270 5,100 -1,380 Descending Minneapolis Center
10:10 44.9539 -93.4739 88° East 222 255 3,900 -900 Descending Minneapolis Center
10:11 44.9475 -93.3958 97° East 199 229 3,300 -780 Descending Minneapolis Center
10:12 44.9314 -93.3350 110° East 160 184 2,400 -840 Descending Minneapolis Center
10:13 44.9119 -93.2897 121° Southeast 137 158 1,700 -720 Descending Minneapolis Center